This is the latest recevied weather packets stored in our database for station/object KD8ZLZ-13. If no packets are shown the sender has not sent any weather packets the latest 10 day(s).
| Time | Temp. | Humidity | Pressure | Rain* | Wind** | Luminosity | Snow |
|---|---|---|---|---|---|---|---|
| 1777825393 | 14.44° C | 40% | 1014.6 hPa | 0 mm | - | 380 W/m² | - |
| 1777824793 | 14.44° C | 41% | 1014.6 hPa | 0 mm | - | 373 W/m² | - |
| 1777824192 | 13.89° C | 39% | 1014.6 hPa | 0 mm | - | 329 W/m² | - |
| 1777823593 | 13.89° C | 40% | 1014.6 hPa | 0 mm | - | 243 W/m² | - |
| 1777822992 | 14.44° C | 39% | 1014.6 hPa | 0 mm | - | 213 W/m² | - |
| 1777822393 | 15° C | 38% | 1014.6 hPa | 0 mm | - | 505 W/m² | - |
| 1777821792 | 15° C | 40% | 1014.6 hPa | 0 mm | - | 415 W/m² | - |
| 1777821193 | 15° C | 40% | 1014.6 hPa | 0 mm | - | 582 W/m² | - |
| 1777820592 | 14.44° C | 41% | 1014.6 hPa | 0 mm | - | 642 W/m² | - |
| 1777819993 | 13.89° C | 44% | 1014.6 hPa | 0 mm | - | 776 W/m² | - |
| 1777819392 | 13.33° C | 46% | 1014.9 hPa | 0 mm | - | 567 W/m² | - |
| 1777818793 | 12.22° C | 47% | 1014.9 hPa | 0 mm | - | 628 W/m² | - |
| 1777818192 | 11.67° C | 48% | 1014.9 hPa | 0 mm | - | 589 W/m² | - |
| 1777817593 | 11.11° C | 49% | 1014.9 hPa | 0 mm | - | 549 W/m² | - |
| 1777816992 | 10.56° C | 50% | 1014.9 hPa | 0 mm | - | 518 W/m² | - |
| 1777816392 | 10° C | 51% | 1015.3 hPa | 0 mm | - | 479 W/m² | - |
| 1777815792 | 9.44° C | 52% | 1015.3 hPa | 0 mm | - | 441 W/m² | - |
| 1777815192 | 8.89° C | 53% | 1015.3 hPa | 0 mm | - | 411 W/m² | - |
| 1777814592 | 8.33° C | 55% | 1015.3 hPa | 0 mm | - | 374 W/m² | - |
| 1777813992 | 8.33° C | 55% | 1015.3 hPa | 0 mm | - | 336 W/m² | - |
| 1777813392 | 7.22° C | 57% | 1015.3 hPa | 0 mm | - | 298 W/m² | - |
| 1777812792 | 6.67° C | 59% | 1015.3 hPa | 0 mm | - | 266 W/m² | - |
| 1777812192 | 6.11° C | 61% | 1015.3 hPa | 0 mm | - | 233 W/m² | - |
| 1777811592 | 5.56° C | 62% | 1015.3 hPa | 0 mm | - | 204 W/m² | - |
| 1777810992 | 5° C | 62% | 1015.3 hPa | 0 mm | - | 139 W/m² | - |
* Rain latest hour (hover to see other rain measurements)
** Current wind speed in m/s (hover to see current wind gust speed)